Location: Brno
(49.2000°N, 16.6330°E)
Time: 20:22:00
(UTC+02:00)

Cosmos 1603 - Visible Passes

Search period start: 24 April 2018 00:00
Search period end: 04 May 2018 00:00
Orbit: 833 x 858 km, 71.0° (Epoch: 23 April)

Date Brightness Start Highest point End Pass type
(mag) Time Alt. Az. Time Alt. Az. Time Alt. Az.
24 Apr 6.3 01:27:08 10° WNW 01:30:10 14° NNW 01:33:11 10° N visible
24 Apr 6.7 05:02:42 10° N 05:04:20 11° NNE 05:05:59 10° NE visible
24 Apr 4.5 21:44:48 24° SE 21:46:49 30° ESE 21:51:37 10° NE visible
24 Apr 4.4 23:26:35 18° SW 23:30:40 52° NW 23:36:11 10° NNE visible
25 Apr 6.3 01:13:05 10° WNW 01:16:11 15° NNW 01:19:17 10° N visible
25 Apr 6.7 04:48:50 10° N 04:50:22 11° NNE 04:51:53 10° NE visible
25 Apr 4.5 21:29:26 16° SSE 21:32:54 29° ESE 21:37:39 10° NE visible
25 Apr 4.3 23:11:14 10° SW 23:16:44 54° NW 23:22:15 10° NNE visible
26 Apr 6.3 00:59:03 10° WNW 01:02:13 15° NNW 01:05:23 10° N visible
26 Apr 6.8 04:35:00 10° N 04:36:23 11° NNE 04:37:47 10° NE visible
26 Apr 4.5 21:14:17 10° SSE 21:18:59 28° ESE 21:23:41 10° NE visible
26 Apr 4.3 22:57:17 10° SW 23:02:48 55° NW 23:08:19 10° NNE visible
27 Apr 6.4 00:45:01 10° WNW 00:48:14 15° NNW 00:51:28 10° N visible
27 Apr 6.9 04:21:09 10° N 04:22:25 11° NNE 04:23:40 10° NE visible
27 Apr 4.6 21:00:26 10° SSE 21:05:04 27° ESE 21:09:43 10° NE visible
27 Apr 4.3 22:43:19 10° SW 22:48:51 56° WNW 22:54:24 10° NNE visible
28 Apr 6.4 00:30:59 10° WNW 00:34:16 16° NNW 00:37:34 10° N visible
28 Apr 6.9 04:07:20 10° NNE 04:08:26 10° NNE 04:09:31 10° NE visible
28 Apr 4.6 20:46:33 10° SSE 20:51:09 26° ESE 20:55:44 10° NE visible
28 Apr 4.3 22:29:22 10° SW 22:34:54 58° WNW 22:40:28 10° NNE visible
29 Apr 6.4 00:16:57 10° WNW 00:20:18 16° NNW 00:23:39 10° N visible
29 Apr 7.0 03:53:32 10° NNE 03:54:27 10° NNE 03:55:21 10° NNE visible
29 Apr 4.2 22:15:25 10° SW 22:20:57 60° WNW 22:26:32 10° NNE visible
30 Apr 6.5 00:02:55 10° WNW 00:06:20 16° NW 00:09:45 10° N visible
30 Apr 7.1 03:39:47 10° NNE 03:40:28 10° NNE 03:41:09 10° NNE visible
30 Apr 4.2 22:01:28 10° SW 22:07:01 61° WNW 22:12:36 10° NNE visible
30 Apr 6.5 23:48:53 10° WNW 23:52:22 16° NW 23:55:50 10° N visible
01 May 7.2 03:26:10 10° NNE 03:26:29 10° NNE 03:26:48 10° NNE visible
01 May 4.2 21:47:31 10° SW 21:53:04 63° WNW 21:58:40 10° NNE visible
01 May 6.5 23:34:52 10° WNW 23:38:23 17° NW 23:41:56 10° N visible
02 May 4.2 21:33:34 10° SW 21:39:08 64° WNW 21:44:44 10° NNE visible
02 May 6.6 23:20:50 10° WNW 23:24:25 17° NW 23:28:01 10° N visible
03 May 6.0 04:39:51 10° NNW 04:44:43 29° NE 04:49:34 10° ESE visible
03 May 4.2 21:19:36 10° SW 21:25:12 66° WNW 21:30:48 10° NNE visible
03 May 6.6 23:06:48 10° WNW 23:10:27 17° NW 23:14:06 10° N visible
